Weather History for Asheville, NC

Change the Weather History Date:

Thursday, March 4, 2010

  Actual Average Record
Temperature  
Mean Temperature 34 °F 44 °F  
Max Temperature 40 °F 55 °F 79 °F (1976)
Min Temperature 28 °F 33 °F 7 °F (1943)
Degree Days  
Heating Degree Days 31 21  
Month to date heating degree days 126 85  
Since 1 July heating degree days 3706 3302  
Cooling Degree Days 0 0  
Month to date cooling degree days 0 0  
Year to date cooling degree days 0 0  
Moisture  
Dew Point 22 °F    
Average Humidity 61    
Maximum Humidity 78    
Minimum Humidity 44    
Precipitation  
Precipitation T in 0.11 in 2.20 in (1979)
Month to date precipitation 0.52 0.48  
Year to date precipitation 10.87 7.91  
Snow  
Snow T in 0.10 in 1.70 in (1925)
Month to date snowfall 8.8 0.3  
Since 1 July snowfall 38.2 7.6  
Snow Depth 2.00 in    
Sea Level Pressure  
Sea Level Pressure 29.94 in    
Wind  
Wind Speed 15 mph (NNW)    
Max Wind Speed 29 mph    
Max Gust Speed 38 mph    
Visibility 10 miles    
Events Snow    
T = Trace of Precipitation, MM = Missing Value Source: NWS Daily Summary

Daily Weather History Graph

Daily Weather History Graph

Search for Another Location

Airport:

Trip Planner

Search our weather history database for the weather conditions in past years. The results will help you decide how hot, cold, wet, or windy it might be!

Date:

Astronomy

Mar. 04, 2010 Rise Set
Actual Time 6:55 AM EST 6:28 PM EST
Civil Twilight 6:30 AM EST 6:53 PM EST
Nautical Twilight 6:01 AM EST 7:23 PM EST
Astronomical Twilight 5:31 AM EST 7:52 PM EST
Moon 11:26 PM EST (3/4) 8:56 AM EST (3/4)
Length of Visible Light 12h 23m
Length of Day
11h 32m
Waning Gibbous, 79% of the Moon is Illuminated
Mar 4
Waning Gibbous
Mar 7
Last Quarter
Mar 15
New
Mar 23
First Quarter
Mar 29
Full

Hourly Weather History & Observations

Time (EST) Temp. Windchill Dew Point Humidity Pressure Visibility Wind Dir Wind Speed Gust Speed Precip Events Conditions
12:54 AM 28.0 °F 17.0 °F 21.9 °F 78% 29.90 in 8.0 mi North 13.8 mph 24.2 mph 0.00 in Snow Light Snow
1:37 AM 28.4 °F 16.2 °F 21.2 °F 74% 29.86 in 10.0 mi NNW 17.3 mph 23.0 mph 0.00 in   Overcast
1:54 AM 28.0 °F 15.7 °F 21.9 °F 78% 29.89 in 10.0 mi North 17.3 mph 25.3 mph 0.00 in   Overcast
2:30 AM 28.4 °F 17.0 °F 21.2 °F 74% 29.85 in 10.0 mi North 15.0 mph 21.9 mph N/A   Overcast
2:51 AM 28.4 °F 16.2 °F 23.0 °F 80% 29.85 in 10.0 mi North 17.3 mph 23.0 mph N/A   Overcast
2:54 AM 28.0 °F 16.5 °F 23.0 °F 81% 29.89 in 10.0 mi North 15.0 mph 21.9 mph N/A   Overcast
3:54 AM 28.0 °F 17.0 °F 23.0 °F 81% 29.89 in 10.0 mi North 13.8 mph - N/A   Overcast
4:44 AM 28.4 °F 18.0 °F 23.0 °F 80% 29.86 in 10.0 mi North 12.7 mph - N/A   Mostly Cloudy
4:54 AM 28.9 °F 19.8 °F 23.0 °F 78% 29.90 in 10.0 mi North 10.4 mph - N/A   Mostly Cloudy
5:31 AM 30.2 °F 21.3 °F 21.2 °F 69% 29.87 in 10.0 mi North 10.4 mph 18.4 mph N/A   Overcast
5:54 AM 30.0 °F 20.0 °F 21.9 °F 72% 29.92 in 10.0 mi NNW 12.7 mph 19.6 mph N/A   Overcast
6:15 AM 30.2 °F 21.3 °F 21.2 °F 69% 29.88 in 10.0 mi NNW 10.4 mph 25.3 mph N/A   Overcast
6:54 AM 30.0 °F 20.0 °F 21.9 °F 72% 29.93 in 10.0 mi North 12.7 mph - N/A   Overcast
7:46 AM 30.2 °F 21.3 °F 21.2 °F 69% 29.90 in 10.0 mi North 10.4 mph 20.7 mph N/A   Overcast
7:54 AM 30.0 °F 21.1 °F 21.9 °F 72% 29.94 in 10.0 mi North 10.4 mph 19.6 mph N/A   Overcast
8:18 AM 30.2 °F 16.2 °F 21.2 °F 69% 29.90 in 10.0 mi NNW 25.3 mph 33.4 mph N/A   Scattered Clouds
8:54 AM 30.9 °F 18.1 °F 21.9 °F 69% 29.96 in 10.0 mi NNW 21.9 mph 35.7 mph N/A   Clear
9:54 AM 33.1 °F 20.1 °F 23.0 °F 66% 29.97 in 10.0 mi NNW 25.3 mph 32.2 mph N/A   Clear
10:54 AM 34.0 °F 24.2 °F 23.0 °F 64% 29.99 in 10.0 mi North 15.0 mph 26.5 mph N/A   Partly Cloudy
11:54 AM 36.0 °F 25.6 °F 21.9 °F 57% 30.00 in 10.0 mi NNW 18.4 mph 28.8 mph N/A   Mostly Cloudy
12:54 PM 37.0 °F 27.4 °F 21.9 °F 54% 29.98 in 10.0 mi North 17.3 mph 24.2 mph N/A   Partly Cloudy
1:54 PM 37.9 °F 28.2 °F 24.1 °F 57% 29.97 in 10.0 mi North 18.4 mph 24.2 mph N/A   Partly Cloudy
2:54 PM 39.0 °F 29.6 °F 21.9 °F 50% 29.97 in 10.0 mi North 18.4 mph 25.3 mph N/A   Clear
3:54 PM 39.0 °F 28.0 °F 21.0 °F 49% 29.97 in 10.0 mi NW 25.3 mph 38.0 mph N/A   Scattered Clouds
4:54 PM 39.0 °F 29.6 °F 19.9 °F 46% 29.98 in 10.0 mi North 18.4 mph 28.8 mph N/A   Partly Cloudy
5:54 PM 37.0 °F 27.4 °F 19.9 °F 50% 29.99 in 10.0 mi NW 17.3 mph 26.5 mph N/A   Partly Cloudy
6:54 PM 35.1 °F 26.4 °F 21.0 °F 57% 30.01 in 10.0 mi NNW 12.7 mph - N/A   Clear
7:54 PM 34.0 °F 26.0 °F 21.9 °F 61% 30.01 in 10.0 mi NNW 10.4 mph - N/A   Clear
8:54 PM 34.0 °F 26.0 °F 21.9 °F 61% 30.01 in 10.0 mi NNW 10.4 mph - N/A   Clear
9:54 PM 34.0 °F 25.5 °F 21.0 °F 59% 30.01 in 10.0 mi NNW 11.5 mph - N/A   Clear
10:54 PM 34.0 °F 28.0 °F 18.0 °F 52% 30.02 in 10.0 mi North 6.9 mph - N/A   Clear
11:54 PM 33.1 °F 25.5 °F 17.1 °F 52% 30.03 in 10.0 mi North 9.2 mph - N/A   Clear